FW7000 Weather Reports


time (UTC)temp
C
wind
direction
speed
KPH
gust
KPH
rain 1hr
cm
rain 24hr
cm
rain mn
cm
humidity
%
barometer
mb
20260906150839 22 170 0.0 0.0 0.00 0.00 0.00 78 1028.5
20260906150329 22 168 0.0 0.0 0.00 0.00 0.00 78 1028.3
20260906145828 22 167 0.0 0.0 0.00 0.00 0.00 79 1028.6
20260906145327 22 167 0.0 0.0 0.00 0.00 0.00 80 1028.6
20260906144822 22 167 0.0 0.0 0.00 0.00 0.00 81 1028.4
20260906144317 22 147 0.0 0.0 0.00 0.00 0.00 80 1028.5
20260906143816 22 166 0.0 0.0 0.00 0.00 0.00 79 1028.4
20260906143314 22 166 0.0 0.0 0.00 0.00 0.00 80 1028.6
20260906142809 22 165 0.0 0.0 0.00 0.00 0.00 81 1028.5
20260906142306 22 170 0.0 0.0 0.00 0.00 0.00 82 1028.4
20260906141803 21 165 0.0 0.0 0.00 0.00 0.00 85 1028.2
20260906141257 21 166 0.0 0.0 0.00 0.00 0.00 85 1028.3
20260906140756 21 166 0.0 0.0 0.00 0.00 0.00 86 1028.5
20260906140251 21 167 0.0 0.0 0.00 0.00 0.00 86 1028.4
20260906135749 21 167 0.0 0.0 0.00 0.00 0.00 87 1028.3
20260906135244 21 166 0.0 0.0 0.00 0.00 0.00 89 1028.3
20260906134740 20 164 0.0 0.0 0.00 0.00 0.00 91 1028.2
20260906134235 20 168 0.0 0.0 0.00 0.00 0.00 92 1028.1
20260906133730 20 167 0.0 0.0 0.00 0.00 0.00 92 1028.1
20260906133225 20 166 0.0 0.0 0.00 0.00 0.00 92 1028.3
20260906132721 20 143 0.0 0.0 0.00 0.00 0.00 91 1028.3
20260906132216 20 169 0.0 0.0 0.00 0.00 0.00 90 1028.1
20260906131712 20 149 0.0 0.0 0.00 0.00 0.00 90 1027.9
20260906131207 20 160 0.0 0.0 0.00 0.00 0.00 89 1028.0
20260906130702 20 165 0.0 0.0 0.00 0.00 0.00 90 1027.7
20260906130157 20 165 0.0 0.0 0.00 0.00 0.00 91 1027.5
20260906125655 20 162 0.0 0.0 0.00 0.00 0.00 93 1027.7
20260906125154 19 166 0.0 0.0 0.00 0.00 0.00 94 1027.7
20260906124650 19 144 0.0 0.0 0.00 0.00 0.00 95 1027.5
20260906124144 18 153 0.0 0.0 0.00 0.00 0.00 96 1027.5
20260906123644 18 165 0.0 0.0 0.00 0.00 0.00 97 1028.0
20260906123139 18 163 0.0 0.0 0.00 0.00 0.00 97 1027.8
20260906122638 18 166 0.0 0.0 0.00 0.00 0.00 97 1027.8
20260906122134 18 156 0.0 0.0 0.00 0.00 0.00 97 1027.4
20260906121630 18 166 0.0 0.0 0.00 0.00 0.00 97 1027.7
20260906121126 18 165 0.0 0.0 0.00 0.00 0.00 98 1027.4
20260906120621 18 166 0.0 0.0 0.00 0.00 0.00 98 1027.2
20260906120119 18 164 0.0 0.0 0.00 0.00 0.00 98 1027.5
20260906115618 18 167 0.0 0.0 0.00 0.00 0.00 98 1027.3
20260906115113 18 165 0.0 0.0 0.00 0.00 0.00 98 1027.5
20260906114608 18 166 0.0 0.0 0.00 0.00 0.00 98 1027.2
20260906114103 18 168 0.0 0.0 0.00 0.00 0.00 98 1027.4
20260906113603 18 167 0.0 0.0 0.00 0.00 0.00 98 1027.2
20260906113057 18 168 0.0 0.0 0.00 0.00 0.00 98 1027.0
20260906112552 18 168 0.0 0.0 0.00 0.00 0.00 98 1027.4
20260906112048 18 168 0.0 0.0 0.00 0.00 0.00 98 1027.3
20260906111548 18 168 0.0 0.0 0.00 0.00 0.00 98 1027.4
20260906111043 18 168 0.0 0.0 0.00 0.00 0.00 98 1027.5
20260906110543 18 167 0.0 0.0 0.00 0.00 0.00 98 1027.4
20260906110042 18 168 0.0 0.0 0.00 0.00 0.00 98 1027.4
20260906105537 18 168 0.0 0.0 0.00 0.00 0.00 98 1027.5
20260906105033 18 168 0.0 0.0 0.00 0.00 0.00 98 1027.4
20260906104532 18 168 0.0 0.0 0.00 0.00 0.00 98 1027.4
20260906104026 18 168 0.0 0.0 0.00 0.00 0.00 98 1027.2
20260906103525 18 168 0.0 0.0 0.00 0.00 0.00 98 1027.2
20260906103020 18 168 0.0 0.0 0.00 0.00 0.00 98 1027.1
20260906102520 18 168 0.0 0.0 0.00 0.00 0.00 98 1027.0
20260906102015 18 168 0.0 0.0 0.00 0.00 0.00 98 1026.8
20260906101509 18 168 0.0 0.0 0.00 0.00 0.00 98 1026.9
20260906101004 18 168 0.0 0.0 0.00 0.00 0.00 98 1026.4
20260906100500 18 168 0.0 0.0 0.00 0.00 0.00 98 1026.6
20260906095954 18 168 0.0 0.0 0.00 0.00 0.00 97 1026.9
20260906095449 18 167 0.0 0.0 0.00 0.00 0.00 97 1026.7
20260906094944 18 168 0.0 0.0 0.00 0.00 0.00 97 1026.5
20260906094443 18 168 0.0 0.0 0.00 0.00 0.00 97 1026.7
20260906093939 18 168 0.0 0.0 0.00 0.00 0.00 97 1026.3
20260906093436 18 168 0.0 0.0 0.00 0.00 0.00 97 1026.4
20260906092935 18 168 0.0 0.0 0.00 0.00 0.00 97 1026.4
20260906092430 18 168 0.0 0.0 0.00 0.00 0.00 97 1026.5
20260906091925 18 168 0.0 0.0 0.00 0.00 0.00 97 1026.6
20260906091421 18 168 0.0 0.0 0.00 0.00 0.00 96 1026.6
20260906090917 18 168 0.0 0.0 0.00 0.00 0.00 96 1026.5
20260906090412 18 168 0.0 0.0 0.00 0.00 0.00 96 1026.4
20260906085907 18 168 0.0 0.0 0.00 0.00 0.00 96 1026.5
20260906085405 18 168 0.0 0.0 0.00 0.00 0.00 96 1026.3
20260906084900 18 168 0.0 0.0 0.00 0.00 0.00 96 1026.3
20260906084359 18 167 0.0 0.0 0.00 0.00 0.00 96 1026.0
20260906083854 18 168 0.0 0.0 0.00 0.00 0.00 96 1026.1
20260906083349 18 168 0.0 0.0 0.00 0.00 0.00 95 1026.2
20260906082849 19 168 0.0 0.0 0.00 0.00 0.00 95 1026.3
20260906082344 19 168 0.0 0.0 0.00 0.00 0.00 95 1026.1
20260906081841 19 168 0.0 0.0 0.00 0.00 0.00 95 1026.1
20260906081336 19 168 0.0 0.0 0.00 0.00 0.00 95 1026.2
20260906080832 19 168 0.0 0.0 0.00 0.00 0.00 95 1026.4
20260906080328 19 168 0.0 0.0 0.00 0.00 0.00 95 1026.2
20260906075827 19 168 0.0 0.0 0.00 0.00 0.00 95 1026.2
20260906075322 19 168 0.0 0.0 0.00 0.00 0.00 95 1026.6
20260906074818 19 168 0.0 0.0 0.00 0.00 0.00 94 1026.4
20260906074317 19 168 0.0 0.0 0.00 0.00 0.00 94 1026.4
20260906073816 20 168 0.0 0.0 0.00 0.00 0.00 94 1026.5
20260906073311 20 168 0.0 0.0 0.00 0.00 0.00 93 1026.6
20260906072808 20 168 0.0 0.0 0.00 0.00 0.00 93 1026.5
20260906072305 20 168 0.0 0.0 0.00 0.00 0.00 93 1026.7
20260906071758 20 168 0.0 0.0 0.00 0.00 0.00 93 1026.6
20260906071259 20 168 0.0 0.0 0.00 0.00 0.00 93 1026.5
20260906070755 20 168 0.0 0.0 0.00 0.00 0.00 93 1026.5
20260906070250 20 168 0.0 0.0 0.00 0.00 0.00 93 1026.5
20260906065749 20 169 0.0 0.0 0.00 0.00 0.00 93 1026.7
20260906065245 20 168 0.0 0.0 0.00 0.00 0.00 93 1026.7
20260906064735 20 168 0.0 0.0 0.00 0.00 0.00 93 1026.6
20260906064231 20 167 0.0 0.0 0.00 0.00 0.00 93 1026.9
20260906063725 20 168 0.0 0.0 0.00 0.00 0.00 93 1027.0
20260906063221 20 168 0.0 0.0 0.00 0.00 0.00 93 1026.9
20260906062716 20 168 0.0 0.0 0.00 0.00 0.00 92 1026.7
20260906062215 20 168 0.0 0.0 0.00 0.00 0.00 92 1026.8
20260906061712 20 168 0.0 0.0 0.00 0.00 0.00 91 1026.9
20260906061207 20 167 0.0 0.0 0.00 0.00 0.00 90 1026.9
20260906060703 21 168 0.0 0.0 0.00 0.00 0.00 89 1027.0
20260906060200 21 168 0.0 0.0 0.00 0.00 0.00 89 1026.7
20260906055655 21 169 0.0 0.0 0.00 0.00 0.00 89 1026.8
20260906055150 21 168 0.0 0.0 0.00 0.00 0.00 89 1026.9
20260906054646 21 168 0.0 0.0 0.00 0.00 0.00 89 1026.9
20260906054140 21 169 0.0 0.0 0.00 0.00 0.00 89 1026.9
20260906053637 21 169 0.0 0.0 0.00 0.00 0.00 89 1026.8
20260906053132 21 168 0.0 0.0 0.00 0.00 0.00 89 1026.6
20260906052627 21 169 0.0 0.0 0.00 0.00 0.00 88 1026.6
20260906052124 21 169 0.0 0.0 0.00 0.00 0.00 88 1026.9
20260906051620 21 169 0.0 0.0 0.00 0.00 0.00 89 1026.7
20260906051114 21 169 0.0 0.0 0.00 0.00 0.00 89 1026.9
20260906050610 21 168 0.0 0.0 0.00 0.00 0.00 89 1026.6
20260906050105 21 169 0.0 0.0 0.00 0.00 0.00 88 1026.7
20260906045603 21 168 0.0 0.0 0.00 0.00 0.00 88 1026.6
20260906045059 21 169 0.0 0.0 0.00 0.00 0.00 88 1026.8
20260906044554 21 169 0.0 0.0 0.00 0.00 0.00 90 1026.7
20260906044049 21 168 0.0 0.0 0.00 0.00 0.00 90 1026.6
20260906043545 21 169 0.0 0.0 0.00 0.00 0.00 89 1026.4
20260906043041 21 169 0.0 0.0 0.00 0.00 0.00 90 1026.2
20260906042540 21 168 0.0 0.0 0.00 0.00 0.00 91 1026.3
20260906042040 20 169 0.0 0.0 0.00 0.00 0.00 92 1026.6
20260906041536 20 169 0.0 0.0 0.00 0.00 0.00 93 1026.4
20260906041031 20 169 0.0 0.0 0.00 0.00 0.00 94 1026.3
20260906040526 20 169 0.0 0.0 0.00 0.00 0.00 94 1026.4
20260906040022 20 169 0.0 0.0 0.00 0.00 0.00 94 1026.1
20260906035517 20 169 0.0 0.0 0.00 0.00 0.00 94 1026.1
20260906035013 20 170 0.0 0.0 0.00 0.00 0.00 94 1026.1
20260906034512 20 169 0.0 0.0 0.00 0.00 0.00 94 1026.1
20260906034007 20 169 0.0 0.0 0.00 0.00 0.00 93 1025.9
20260906033502 20 169 0.0 0.0 0.00 0.00 0.00 93 1026.2
20260906032958 20 169 0.0 0.0 0.00 0.00 0.00 93 1026.1
20260906032454 20 170 0.0 0.0 0.00 0.00 0.00 93 1026.0
20260906031954 20 170 0.0 0.0 0.00 0.00 0.00 93 1026.0
20260906031450 20 170 0.0 0.0 0.00 0.00 0.00 92 1026.2
20260906030945 20 170 0.0 0.0 0.00 0.00 0.00 92 1026.4
20260906030439 20 170 0.0 0.0 0.00 0.00 0.00 92 1026.1
20260906025934 20 170 0.0 0.0 0.00 0.00 0.00 91 1026.0
20260906025428 20 169 0.0 0.0 0.00 0.00 0.00 91 1025.7
20260906024927 21 171 0.0 0.0 0.00 0.00 0.00 90 1025.8
20260906024427 21 170 0.0 0.0 0.00 0.00 0.00 90 1025.9
20260906023922 21 170 0.0 0.0 0.00 0.00 0.00 89 1025.8
20260906023418 21 168 0.0 0.0 0.00 0.00 0.00 89 1025.6
20260906022918 21 170 0.0 0.0 0.00 0.00 0.00 88 1025.4
20260906022413 21 169 0.0 0.0 0.00 0.00 0.00 87 1025.2
20260906021909 21 170 0.0 0.0 0.00 0.00 0.00 87 1025.2
20260906021408 21 172 0.0 0.0 0.00 0.00 0.00 86 1025.3
20260906020902 22 172 0.0 0.0 0.00 0.00 0.00 85 1025.1
20260906020357 22 171 0.0 0.0 0.00 0.00 0.00 85 1024.9
20260906015852 22 169 0.0 0.0 0.00 0.00 0.00 83 1024.9
20260906015351 22 169 0.0 0.0 0.00 0.00 0.00 82 1025.0
20260906014851 22 174 0.0 0.0 0.00 0.00 0.00 81 1024.5
20260906014351 22 174 0.0 0.0 0.00 0.00 0.00 81 1024.6
20260906013847 23 174 0.0 0.0 0.00 0.00 0.00 80 1024.2
20260906013343 23 174 0.0 0.0 0.00 0.00 0.00 79 1024.2
20260906012838 23 166 0.0 0.0 0.00 0.00 0.00 78 1024.0
20260906012332 23 172 0.0 0.0 0.00 0.00 0.00 78 1024.2
20260906011827 23 155 0.0 0.0 0.00 0.00 0.00 77 1024.0
20260906011321 23 163 0.0 0.0 0.00 0.00 0.00 76 1024.1
20260906010817 23 167 0.0 0.0 0.00 0.00 0.00 76 1024.0
20260906010314 24 170 0.0 0.0 0.00 0.00 0.00 76 1024.1
20260906005809 24 202 0.0 0.0 0.00 0.00 0.00 76 1024.0
20260906005307 24 185 0.0 0.0 0.00 0.00 0.00 76 1024.2
20260906004807 24 178 0.0 0.0 0.00 0.00 0.00 76 1023.8
20260906004307 24 149 0.0 0.0 0.00 0.00 0.00 76 1024.0
20260906003802 24 194 0.0 0.0 0.00 0.00 0.00 76 1024.2
20260906003257 25 182 0.0 0.0 0.00 0.00 0.00 75 1024.2
20260906002753 25 179 0.0 0.0 0.00 0.00 0.00 75 1024.2
20260906002252 25 176 0.0 0.0 0.00 0.00 0.00 75 1024.0
20260906001748 25 176 0.0 0.0 0.00 0.00 0.00 75 1023.9
20260906001247 25 194 0.0 0.0 0.00 0.00 0.00 75 1024.1
20260906000743 25 198 0.0 0.0 0.00 0.00 0.00 74 1023.9
20260906000238 25 209 0.0 0.0 0.00 0.00 0.00 74 1024.1
20260905235733 26 186 0.0 0.0 0.00 0.00 0.00 73 1024.1
20260905235227 26 182 0.0 0.0 0.00 0.00 0.00 73 1023.9
20260905234723 26 200 0.0 0.0 0.00 0.00 0.00 73 1024.0
20260905234218 26 206 0.0 0.0 0.00 0.00 0.00 72 1024.2
20260905233713 26 122 0.0 0.0 0.00 0.00 0.00 72 1024.0
20260905233212 26 172 0.0 0.0 0.00 0.00 0.00 71 1024.0
20260905232707 26 193 0.0 0.0 0.00 0.00 0.00 71 1024.2
20260905232203 27 123 0.0 0.0 0.00 0.00 0.00 70 1024.0
20260905231659 27 151 0.0 0.0 0.00 0.00 0.00 68 1023.7
20260905231154 27 218 0.0 0.0 0.00 0.00 0.00 68 1024.0
20260905230650 28 215 0.0 0.0 0.00 0.00 0.00 67 1024.0
20260905230148 28 177 0.0 0.0 0.00 0.00 0.00 64 1024.0
20260905225647 28 203 0.0 0.0 0.00 0.00 0.00 64 1023.8
20260905225142 28 207 0.0 0.0 0.00 0.00 0.00 65 1024.2
20260905224641 28 205 0.0 0.0 0.00 0.00 0.00 64 1023.9
20260905224136 28 183 0.0 0.0 0.00 0.00 0.00 63 1024.0
20260905223633 28 191 0.0 0.0 0.00 0.00 0.00 64 1024.2
20260905223130 28 187 0.0 0.0 0.00 0.00 0.00 63 1024.1
20260905222625 28 204 0.0 0.0 0.00 0.00 0.00 64 1024.5
20260905222120 28 203 0.0 0.0 0.00 0.00 0.00 61 1024.2
20260905221616 28 198 0.0 0.0 0.00 0.00 0.00 62 1024.6
20260905221112 28 224 0.0 0.0 0.00 0.00 0.00 61 1024.3
20260905220607 28 224 0.0 0.0 0.00 0.00 0.00 64 1024.4
20260905220104 28 223 0.0 0.0 0.00 0.00 0.00 63 1024.4
20260905215602 29 217 0.0 0.0 0.00 0.00 0.00 62 1024.4
20260905215058 28 210 0.0 0.0 0.00 0.00 0.00 63 1024.6
20260905214555 27 215 0.0 0.0 0.00 0.00 0.00 65 1024.5
20260905214054 28 213 0.0 0.0 0.00 0.00 0.00 63 1024.5
20260905213550 29 219 0.0 0.0 0.00 0.00 0.00 63 1024.8
20260905213045 30 212 0.0 0.0 0.00 0.00 0.00 61 1024.9
20260905212545 30 224 0.0 0.0 0.00 0.00 0.00 61 1024.7
20260905212045 29 226 0.0 0.0 0.00 0.00 0.00 62 1024.8
20260905211540 28 212 0.0 0.0 0.00 0.00 0.00 63 1024.7
20260905211036 28 218 0.0 0.0 0.00 0.00 0.00 63 1024.7
20260905210531 28 223 0.0 0.0 0.00 0.00 0.00 66 1024.7
20260905210026 27 221 0.0 0.0 0.00 0.00 0.00 67 1024.6
20260905205525 27 226 0.0 0.0 0.00 0.00 0.00 67 1024.6
20260905205025 28 228 0.0 0.0 0.00 0.00 0.00 64 1025.1
20260905204520 28 211 0.0 0.0 0.00 0.00 0.00 64 1024.9
20260905204015 29 239 0.0 0.0 0.00 0.00 0.00 63 1025.0
20260905203510 28 226 0.0 0.0 0.00 0.00 0.00 64 1025.1
20260905203005 28 243 0.0 0.0 0.00 0.00 0.00 67 1025.0
20260905202500 28 247 0.0 0.0 0.00 0.00 0.00 66 1025.3
20260905201956 27 227 0.0 0.0 0.00 0.00 0.00 67 1025.1
20260905201451 27 225 0.0 0.0 0.00 0.00 0.00 67 1025.2
20260905200950 27 227 0.0 0.0 0.00 0.00 0.00 71 1025.3
20260905200446 27 229 0.0 0.0 0.00 0.00 0.00 68 1025.4
20260905195944 27 229 0.0 0.0 0.00 0.00 0.00 67 1025.2
20260905195440 27 226 0.0 0.0 0.00 0.00 0.00 68 1025.1
20260905194936 26 224 0.0 0.0 0.00 0.00 0.00 72 1025.4
20260905194434 26 223 0.0 0.0 0.00 0.00 0.00 73 1025.2
20260905193929 26 241 0.0 0.0 0.00 0.00 0.00 73 1025.4
20260905193424 26 228 0.0 0.0 0.00 0.00 0.00 72 1025.1
20260905192919 26 227 0.0 0.0 0.00 0.00 0.00 73 1025.3
20260905192415 26 230 0.0 0.0 0.00 0.00 0.00 73 1025.3
20260905191914 26 219 0.0 0.0 0.00 0.00 0.00 72 1025.2
20260905191414 26 232 0.0 0.0 0.00 0.00 0.00 73 1025.2
20260905190908 26 234 0.0 0.0 0.00 0.00 0.00 73 1025.3
20260905190400 26 232 0.0 0.0 0.00 0.00 0.00 74 1025.0
20260905185859 26 232 0.0 0.0 0.00 0.00 0.00 72 1025.2
20260905185355 26 224 0.0 0.0 0.00 0.00 0.00 72 1024.9
20260905184853 26 221 0.0 0.0 0.00 0.00 0.00 74 1025.2
20260905184353 25 218 0.0 0.0 0.00 0.00 0.00 75 1025.0
20260905183851 26 221 0.0 0.0 0.00 0.00 0.00 75 1025.1
20260905183347 26 220 0.0 0.0 0.00 0.00 0.00 74 1025.2
20260905182842 25 220 0.0 0.0 0.00 0.00 0.00 76 1025.3
20260905182341 25 217 0.0 0.0 0.00 0.00 0.00 77 1025.5
20260905181836 26 215 0.0 0.0 0.00 0.00 0.00 76 1025.7
20260905181331 26 214 0.0 0.0 0.00 0.00 0.00 75 1025.4
20260905180829 26 217 0.0 0.0 0.00 0.00 0.00 77 1025.7
20260905180325 26 216 0.0 0.0 0.00 0.00 0.00 75 1025.7
20260905175820 26 232 0.0 0.0 0.00 0.00 0.00 76 1025.6
20260905175314 25 236 0.0 0.0 0.00 0.00 0.00 77 1025.4
20260905174809 26 228 0.0 0.0 0.00 0.00 0.00 77 1025.6
20260905174305 25 220 0.0 0.0 0.00 0.00 0.00 78 1025.7
20260905173801 25 217 0.0 0.0 0.00 0.00 0.00 80 1025.7
20260905173257 23 212 0.0 0.0 0.00 0.00 0.00 82 1025.8
20260905172756 23 213 0.0 0.0 0.00 0.00 0.00 84 1026.0
20260905172255 23 212 0.0 0.0 0.00 0.00 0.00 83 1025.9
20260905171751 24 214 0.0 0.0 0.00 0.00 0.00 83 1026.0
20260905171248 23 216 0.0 0.0 0.00 0.00 0.00 83 1026.1
20260905170744 23 218 0.0 0.0 0.00 0.00 0.00 84 1025.8
20260905170240 24 208 0.0 0.0 0.00 0.00 0.00 82 1025.9
20260905165738 24 221 0.0 0.0 0.00 0.00 0.00 82 1025.9
20260905165234 23 225 0.0 0.0 0.00 0.00 0.00 82 1025.7
20260905164734 23 220 0.0 0.0 0.00 0.00 0.00 83 1025.7
20260905164229 23 216 0.0 0.0 0.00 0.00 0.00 84 1025.9
20260905163725 23 220 0.0 0.0 0.00 0.00 0.00 85 1026.0
20260905163221 23 224 0.0 0.0 0.00 0.00 0.00 85 1026.2
20260905162717 23 219 0.0 0.0 0.00 0.00 0.00 85 1026.2
20260905162216 23 219 0.0 0.0 0.00 0.00 0.00 85 1026.3
20260905161711 23 213 0.0 0.0 0.00 0.00 0.00 86 1026.1
20260905161209 23 220 0.0 0.0 0.00 0.00 0.00 86 1026.1
20260905160708 23 222 0.0 0.0 0.00 0.00 0.00 86 1026.1
20260905160208 22 220 0.0 0.0 0.00 0.00 0.00 86 1025.9
20260905155702 23 216 0.0 0.0 0.00 0.00 0.00 86 1026.1
20260905155202 22 221 0.0 0.0 0.00 0.00 0.00 87 1025.9
20260905154655 22 216 0.0 0.0 0.00 0.00 0.00 88 1026.1
20260905154151 22 212 0.0 0.0 0.00 0.00 0.00 88 1026.0
20260905153647 22 219 0.0 0.0 0.00 0.00 0.00 88 1025.9
20260905153143 22 210 0.0 0.0 0.00 0.00 0.00 87 1025.8
20260905152637 22 222 0.0 0.0 0.00 0.00 0.00 87 1025.8
20260905152132 22 220 0.0 0.0 0.00 0.00 0.00 87 1025.5
20260905151626 22 216 0.0 0.0 0.00 0.00 0.00 88 1025.7
20260905151122 22 216 0.0 0.0 0.00 0.00 0.00 88 1025.6